Date String (YYYY-MM-DD hh:mm:ss) UTC,Instrument flags,absolute air pressure of the measurement (hPa),sample flow rate (lpm),inlet stack bypass flow (lpm),air temperature of the measurement (°C),ambient temperature measured by the external sensor (°C),aerosol sample conditioner tube jacket temperature (°C),OPC LED temperature (°C),internal box temperature (°C),relative humidity of the measurement (%),span deviation,mass concentration of particles derived from Lorenz-Mie calculation of OPC scattering (μg/m³),mass concentration of particles derived from Lorenz-Mie calculation of OPC scattering (μg/m³),mass concentration of particles derived from Lorenz-Mie calculation of OPC scattering (μg/m³)
DateTimeUTC,F1_M11,P_M11,Q1_M11,Q2_M11,T1_M11,T2_M11,T3_M11,T4_M11,T5_M11,U1_M11,ZSPAN_M11,X0_M11,X2_M11,X1_M11
2023-09-17 02:00:00,SystemResetWarning,0835.6,5.00,000.00,028.2,024.9,000.0,036.4,029.4,21.3,0000.0,0008.41,0004.89,0004.45
2023-09-17 02:01:00,SystemResetWarning,0835.6,5.01,000.00,028.1,024.3,000.0,036.4,029.3,21.5,0000.0,0007.92,0004.88,0004.45
2023-09-17 02:02:00,SystemResetWarning,0835.6,5.01,000.00,028.0,024.4,000.0,036.4,029.2,21.7,0000.0,0007.95,0004.89,0004.45
2023-09-17 02:03:00,SystemResetWarning,0835.6,4.99,000.00,027.9,024.7,000.0,036.4,029.2,21.7,0000.0,0007.97,0004.90,0004.46
2023-09-17 02:04:00,SystemResetWarning,0836.1,5.00,000.00,027.9,025.1,000.0,036.4,029.3,22.0,0000.0,0008.14,0004.93,0004.46
2023-09-17 02:05:00,SystemResetWarning,0835.7,5.01,000.00,027.9,025.4,000.0,036.3,029.4,21.9,0000.0,0008.28,0004.95,0004.47
2023-09-17 02:06:00,SystemResetWarning,0835.7,5.00,000.00,027.9,025.7,000.0,036.3,029.5,21.9,0000.0,0008.37,0004.97,0004.47
2023-09-17 02:07:00,SystemResetWarning,0835.7,5.00,000.00,027.9,025.9,000.0,036.3,029.5,21.8,0000.0,0008.52,0004.99,0004.48
2023-09-17 02:08:00,SystemResetWarning,0835.8,5.00,000.00,027.9,026.2,000.0,036.3,029.5,21.9,0000.0,0008.52,0004.97,0004.47
2023-09-17 02:09:00,SystemResetWarning,0835.8,5.01,000.00,027.9,026.3,000.0,036.3,029.6,21.7,0000.0,0008.48,0004.98,0004.48
2023-09-17 02:10:00,SystemResetWarning,0835.8,4.99,000.00,028.0,026.5,000.0,036.3,029.7,21.6,0000.4,0008.48,0004.96,0004.48
2023-09-17 02:11:00,SystemResetWarning,0835.8,5.00,000.00,028.0,026.6,000.0,036.3,029.7,21.5,0001.8,0008.42,0004.93,0004.47
2023-09-17 02:12:00,SystemResetWarning,0835.8,5.01,000.00,028.0,026.7,000.0,036.3,029.7,21.5,0001.3,0008.72,0004.90,0004.46
2023-09-17 02:13:00,SystemResetWarning,0835.8,5.01,000.00,028.1,026.8,000.0,036.3,029.8,21.4,0001.8,0009.56,0004.92,0004.46
2023-09-17 02:14:00,SystemResetWarning,0835.8,5.00,000.00,028.1,026.9,000.0,036.4,029.8,21.3,0001.6,0009.78,0004.96,0004.46
2023-09-17 02:15:00,SystemResetWarning,0835.8,5.00,000.00,028.1,027.0,000.0,036.4,029.9,21.5,0001.4,0009.70,0004.93,0004.45
2023-09-17 02:16:00,SystemResetWarning,0835.8,5.00,000.00,028.2,027.0,000.0,036.4,029.9,21.5,0001.3,0009.55,0004.91,0004.43
2023-09-17 02:17:00,SystemResetWarning,0835.8,5.00,000.00,028.2,027.1,000.0,036.4,029.9,21.6,0001.7,0009.48,0004.90,0004.44
2023-09-17 02:18:00,SystemResetWarning,0835.8,5.00,000.00,028.2,027.1,000.0,036.4,029.9,21.6,0002.1,0009.43,0004.88,0004.44
2023-09-17 02:19:00,SystemResetWarning,0835.8,5.00,000.00,028.3,027.2,000.0,036.5,030.0,21.4,0001.5,0009.44,0004.89,0004.45
2023-09-17 02:20:00,SystemResetWarning,0835.8,5.00,000.00,028.3,027.2,000.0,036.5,030.0,21.4,0001.0,0009.59,0004.90,0004.44
2023-09-17 02:21:00,SystemResetWarning,0835.8,5.02,000.00,028.3,027.2,000.0,036.5,030.0,21.3,0001.1,0009.87,0004.94,0004.43
2023-09-17 02:22:00,SystemResetWarning,0835.8,5.00,000.00,028.4,027.3,000.0,036.5,030.1,21.2,0001.3,0010.08,0004.94,0004.43
2023-09-17 02:23:00,SystemResetWarning,0835.8,4.99,000.00,028.4,027.3,000.0,036.6,030.1,21.1,0000.9,0010.33,0004.96,0004.43
2023-09-17 02:24:00,SystemResetWarning,0835.8,5.00,000.00,028.4,027.3,000.0,036.6,030.1,21.0,0000.0,0010.24,0004.99,0004.45
2023-09-17 02:25:00,SystemResetWarning,0835.8,4.99,000.00,028.4,025.9,000.0,036.6,029.7,21.2,0000.0,0011.03,0004.97,0004.46
2023-09-17 02:26:00,SystemResetWarning,0835.8,5.01,000.00,028.2,024.4,000.0,036.5,029.3,21.5,0000.0,0011.18,0005.00,0004.48
2023-09-17 02:27:00,SystemResetWarning,0835.7,5.00,000.00,028.1,024.3,000.0,036.5,029.3,21.4,0000.0,0011.12,0004.99,0004.49
2023-09-17 02:28:00,SystemResetWarning,0835.7,5.01,000.00,028.0,024.5,000.0,036.5,029.3,21.5,0000.0,0011.12,0004.98,0004.48
2023-09-17 02:29:00,SystemResetWarning,0835.8,4.99,000.00,028.0,024.9,000.0,036.5,029.3,21.7,0000.0,0011.07,0004.98,0004.47
2023-09-17 02:30:00,SystemResetWarning,0835.8,5.00,000.00,028.0,025.2,000.0,036.4,029.4,21.7,0000.0,0011.00,0004.99,0004.46
2023-09-17 02:31:00,SystemResetWarning,0835.8,5.01,000.00,027.9,025.5,000.0,036.4,029.4,21.7,0000.0,0010.88,0004.97,0004.46
2023-09-17 02:32:00,SystemResetWarning,0835.8,5.01,000.00,028.0,025.8,000.0,036.4,029.5,21.6,0000.0,0010.52,0004.91,0004.45
2023-09-17 02:33:00,SystemResetWarning,0835.8,4.99,000.00,028.0,026.0,000.0,036.4,029.5,21.5,0000.0,0010.32,0004.88,0004.44
2023-09-17 02:34:00,SystemResetWarning,0835.8,4.99,000.00,028.0,026.2,000.0,036.4,029.6,21.4,0000.0,0009.91,0004.92,0004.45
2023-09-17 02:35:00,SystemResetWarning,0835.8,5.00,000.00,028.0,026.4,000.0,036.4,029.6,21.5,0000.0,0009.52,0004.92,0004.45
2023-09-17 02:36:00,SystemResetWarning,0835.8,5.01,000.00,028.0,026.5,000.0,036.4,029.7,21.5,0000.0,0008.52,0004.86,0004.41
2023-09-17 02:37:00,SystemResetWarning,0835.8,5.01,000.00,028.1,026.6,000.0,036.4,029.7,21.4,0000.0,0008.06,0004.83,0004.41
2023-09-17 02:38:00,SystemResetWarning,0835.8,5.00,000.00,028.1,026.7,000.0,036.4,029.8,21.4,0000.0,0008.14,0004.82,0004.39
2023-09-17 02:39:00,SystemResetWarning,0835.8,5.00,000.00,028.1,026.8,000.0,036.4,029.8,21.3,0000.0,0008.08,0004.81,0004.39
2023-09-17 02:40:00,SystemResetWarning,0835.8,5.00,000.00,028.1,026.9,000.0,036.4,029.8,21.2,0000.0,0008.00,0004.79,0004.39
2023-09-17 02:41:00,SystemResetWarning,0835.8,4.99,000.00,028.2,026.9,000.0,036.4,029.9,21.2,0000.0,0008.03,0004.81,0004.39
2023-09-17 02:42:00,SystemResetWarning,0835.8,4.99,000.00,028.2,027.0,000.0,036.4,029.9,21.2,0000.0,0008.51,0004.81,0004.39
2023-09-17 02:43:00,SystemResetWarning,0835.8,5.00,000.00,028.2,027.0,000.0,036.5,029.9,21.0,0000.0,0008.91,0004.81,0004.40
2023-09-17 02:44:00,SystemResetWarning,0835.9,5.00,000.00,028.2,027.1,000.0,036.5,030.0,21.1,0000.0,0008.93,0004.81,0004.41
2023-09-17 02:45:00,SystemResetWarning,0835.9,5.00,000.00,028.3,027.1,000.0,036.5,030.0,20.9,0000.0,0009.05,0004.78,0004.41
2023-09-17 02:46:00,SystemResetWarning,0835.9,5.00,000.00,028.3,027.1,000.0,036.5,030.0,20.9,0000.0,0009.02,0004.77,0004.40
2023-09-17 02:47:00,SystemResetWarning,0835.9,5.00,000.00,028.3,027.2,000.0,036.5,030.0,20.8,0000.0,0009.30,0004.76,0004.40
2023-09-17 02:48:00,SystemResetWarning,0835.9,5.00,000.00,028.4,027.2,000.0,036.6,030.1,20.8,0000.0,0009.19,0004.77,0004.39
2023-09-17 02:49:00,SystemResetWarning,0835.9,5.00,000.00,028.4,027.2,000.0,036.6,030.1,20.6,0000.0,0009.10,0004.76,0004.39
2023-09-17 02:50:00,SystemResetWarning,0835.9,5.01,000.00,028.4,027.2,000.0,036.6,030.1,20.5,0000.0,0009.18,0004.79,0004.39
2023-09-17 02:51:00,SystemResetWarning,0835.9,5.00,000.00,028.4,027.3,000.0,036.6,030.2,20.4,0000.0,0009.25,0004.82,0004.39
2023-09-17 02:52:00,SystemResetWarning,0835.9,5.00,000.00,028.5,027.3,000.0,036.7,030.2,20.4,0000.0,0009.46,0004.83,0004.39
2023-09-17 02:53:00,SystemResetWarning,0835.9,5.00,000.00,028.5,027.3,000.0,036.7,030.2,20.4,0000.0,0009.33,0004.87,0004.39
2023-09-17 02:54:00,SystemResetWarning,0835.9,5.00,000.00,028.5,027.3,000.0,036.7,030.2,20.2,0000.4,0009.23,0004.88,0004.38
2023-09-17 02:55:00,SystemResetWarning,0835.9,4.98,000.00,028.5,026.7,000.0,036.7,030.0,20.3,0000.0,0009.47,0004.91,0004.38
2023-09-17 02:56:00,SystemResetWarning,0835.9,5.00,000.00,028.4,024.9,000.0,036.7,029.5,20.3,0000.0,0009.64,0004.93,0004.37
2023-09-17 02:57:00,SystemResetWarning,0835.8,5.01,000.00,028.3,024.3,000.0,036.6,029.4,20.5,0000.0,0009.61,0004.93,0004.38
2023-09-17 02:58:00,SystemResetWarning,0835.9,5.00,000.00,028.1,024.4,000.0,036.6,029.3,20.7,0000.2,0009.37,0004.95,0004.38
2023-09-17 02:59:00,SystemResetWarning,0835.9,5.00,000.00,028.1,024.7,000.0,036.6,029.3,20.8,0000.0,0009.29,0004.97,0004.38
